Location: Mizzole
(45.4833°N, 11.0500°E)
Time: 18:11:11
(UTC+00:00)

CZ-4 R/B - Pass Details

Date: 21 October 2019
Orbit: 529 x 601 km, 97.8° (Epoch: 17 November)

Event Time Altitude Azimuth Distance (km) Brightness Sun altitude
Rises 16:43:35 0° 140° (SE) 2,815 4.6 -4.7°
Reaches altitude 10° 16:45:54 10° 130° (SE) 1,927 3.7 -5.1°
Maximum altitude 16:49:35 31° 68° (ENE) 1,067 2.3 -5.8°
Drops below altitude 10° 16:53:19 10° 7° (N) 1,954 4.0 -6.4°
Sets 16:55:41 0° 357° (N) 2,862 4.9 -6.8°
